When you browse on this site, cookies collect data to enhance your experience and personalize the content and advertising you see.
Visit our Privacy Policy to learn more. By continuing to use the site, you agree to this use of cookies and data.
  • In United Kingdom
  • List of Countries
  • For 7 days
  • Water Temperature
  • Satellite Maps
  • Weather Map
  • Weather Widgets
  • user-avatar
    Login

    Hourly Weather Santa Maria Coyotepec

    Today, 20 January, Sunday

    Time Temperature Precipitation Wind Pressure Humidity
    00:00 +16°C° 0 mm 2 mps 631 mmHg 79%
    01:00 +15°C° 0 mm 2 mps 631 mmHg 79%
    02:00 +14°C° 0 mm 2 mps 630 mmHg 79%
    03:00 +13°C° 0 mm 3 mps 630 mmHg 78%
    04:00 +12°C° 0 mm 3 mps 630 mmHg 78%
    05:00 +12°C° 0 mm 2 mps 630 mmHg 78%
    06:00 +12°C° 0 mm 2 mps 630 mmHg 78%
    07:00 +11°C° 0 mm 3 mps 631 mmHg 74%
    08:00 +12°C° 0 mm 3 mps 631 mmHg 69%
    09:00 +13°C° 0 mm 3 mps 632 mmHg 64%
    10:00 +16°C° 0 mm 3 mps 632 mmHg 59%
    11:00 +18°C° 0 mm 3 mps 633 mmHg 53%
    12:00 +20°C° 0 mm 3 mps 633 mmHg 47%
    13:00 +20°C° 0 mm 3 mps 633 mmHg 45%
    14:00 +21°C° 0 mm 3 mps 633 mmHg 43%
    15:00 +21°C° 0 mm 3 mps 633 mmHg 41%
    16:00 +19°C° 0 mm 3 mps 632 mmHg 47%
    17:00 +18°C° 0 mm 3 mps 632 mmHg 53%
    18:00 +16°C° 0 mm 3 mps 631 mmHg 58%
    19:00 +13°C° 0 mm 3 mps 631 mmHg 64%
    20:00 +12°C° 0 mm 3 mps 631 mmHg 70%
    21:00 +10°C° 0 mm 2 mps 630 mmHg 76%
    22:00 +9°C° 0 mm 2 mps 630 mmHg 76%
    23:00 +9°C° 0 mm 2 mps 630 mmHg 76%

    Tomorrow, 21 January, Monday

    Time Temperature Precipitation Wind Pressure Humidity
    00:00 +8°C° 0 mm 2 mps 630 mmHg 76%
    01:00 +8°C° 0 mm 2 mps 630 mmHg 76%
    02:00 +8°C° 0 mm 2 mps 629 mmHg 76%
    03:00 +7°C° 0 mm 2 mps 629 mmHg 75%
    04:00 +7°C° 0 mm 2 mps 629 mmHg 74%
    05:00 +7°C° 0 mm 2 mps 628 mmHg 73%
    06:00 +7°C° 0 mm 2 mps 628 mmHg 72%
    07:00 +9°C° 0 mm 2 mps 629 mmHg 64%
    08:00 +12°C° 0 mm 2 mps 630 mmHg 55%
    09:00 +14°C° 0 mm 2 mps 632 mmHg 46%
    10:00 +18°C° 0 mm 1 mps 632 mmHg 38%
    11:00 +21°C° 0 mm 1 mps 633 mmHg 30%
    12:00 +24°C° 0 mm 1 mps 634 mmHg 22%
    13:00 +25°C° 0 mm 1 mps 633 mmHg 21%
    14:00 +25°C° 0 mm 1 mps 633 mmHg 20%
    15:00 +26°C° 0 mm 1 mps 632 mmHg 19%
    16:00 +24°C° 0 mm 1 mps 631 mmHg 26%
    17:00 +22°C° 0 mm 1 mps 631 mmHg 32%
    18:00 +20°C° 0 mm 1 mps 630 mmHg 39%
    19:00 +18°C° 0 mm 1 mps 630 mmHg 45%
    20:00 +16°C° 0 mm 1 mps 630 mmHg 51%
    21:00 +14°C° 0 mm 1 mps 630 mmHg 57%
    22:00 +13°C° 0 mm 1 mps 629 mmHg 58%
    23:00 +13°C° 0 mm 1 mps 629 mmHg 60%

    Day after tomorrow, 22 January, Tuesday

    Time Temperature Precipitation Wind Pressure Humidity
    00:00 +13°C° 0 mm 1 mps 629 mmHg 61%
    01:00 +12°C° 0 mm 1 mps 629 mmHg 60%
    02:00 +12°C° 0 mm 1 mps 628 mmHg 60%
    03:00 +12°C° 0 mm 1 mps 628 mmHg 59%
    04:00 +11°C° 0 mm 1 mps 627 mmHg 58%
    05:00 +11°C° 0 mm 1 mps 627 mmHg 57%
    06:00 +11°C° 0 mm 1 mps 627 mmHg 55%
    07:00 +14°C° 0 mm 1 mps 628 mmHg 49%
    08:00 +16°C° 0 mm 1 mps 630 mmHg 42%
    09:00 +20°C° 0 mm 1 mps 631 mmHg 36%
    10:00 +22°C° 0 mm 1 mps 631 mmHg 32%
    11:00 +24°C° 0 mm 2 mps 632 mmHg 28%
    12:00 +26°C° 0 mm 2 mps 632 mmHg 23%
    13:00 +26°C° 0 mm 2 mps 631 mmHg 23%
    14:00 +27°C° 0 mm 3 mps 631 mmHg 23%
    15:00 +27°C° 0 mm 3 mps 630 mmHg 23%
    16:00 +25°C° 0 mm 3 mps 630 mmHg 29%
    17:00 +23°C° 0 mm 2 mps 629 mmHg 35%
    18:00 +20°C° 0 mm 2 mps 629 mmHg 41%
    19:00 +19°C° 0 mm 2 mps 629 mmHg 46%
    20:00 +18°C° 0 mm 1 mps 629 mmHg 51%
    21:00 +15°C° 0 mm 1 mps 629 mmHg 56%
    22:00 +15°C° 0 mm 1 mps 628 mmHg 58%
    23:00 +14°C° 0 mm 1 mps 628 mmHg 61%

    23 January, Wednesday

    Time Temperature Precipitation Wind Pressure Humidity
    00:00 +14°C° 0 mm 1 mps 628 mmHg 63%
    01:00 +13°C° 0 mm 1 mps 627 mmHg 64%
    02:00 +13°C° 0 mm 1 mps 627 mmHg 66%
    03:00 +13°C° 0 mm 1 mps 626 mmHg 67%
    04:00 +13°C° 0 mm 1 mps 626 mmHg 66%
    05:00 +12°C° 0 mm 1 mps 626 mmHg 66%
    06:00 +12°C° 0 mm 1 mps 626 mmHg 65%
    07:00 +15°C° 0 mm 1 mps 627 mmHg 57%
    08:00 +18°C° 0 mm 1 mps 629 mmHg 49%
    09:00 +20°C° 0 mm 1 mps 630 mmHg 41%
    10:00 +23°C° 0 mm 1 mps 631 mmHg 36%
    11:00 +25°C° 0 mm 1 mps 632 mmHg 30%
    12:00 +27°C° 0 mm 1 mps 632 mmHg 24%
    13:00 +28°C° 0 mm 1 mps 632 mmHg 23%
    14:00 +28°C° 0 mm 2 mps 631 mmHg 23%
    15:00 +28°C° 0 mm 3 mps 631 mmHg 22%
    16:00 +26°C° 0 mm 3 mps 631 mmHg 31%
    17:00 +24°C° 0 mm 3 mps 630 mmHg 39%
    18:00 +21°C° 0 mm 3 mps 630 mmHg 48%
    19:00 +19°C° 0 mm 2 mps 630 mmHg 58%
    20:00 +18°C° 0 mm 2 mps 630 mmHg 68%
    21:00 +16°C° 0 mm 2 mps 631 mmHg 79%
    22:00 +15°C° 0 mm 2 mps 631 mmHg 81%
    23:00 +15°C° 0 mm 2 mps 630 mmHg 83%

    24 January, Thursday

    Time Temperature Precipitation Wind Pressure Humidity
    00:00 +14°C° 0 mm 2 mps 630 mmHg 85%
    01:00 +14°C° 0 mm 2 mps 630 mmHg 85%
    02:00 +13°C° 0 mm 2 mps 629 mmHg 85%
    03:00 +13°C° 0 mm 2 mps 629 mmHg 85%
    04:00 +13°C° 0 mm 2 mps 629 mmHg 85%
    05:00 +12°C° 0 mm 2 mps 629 mmHg 85%
    06:00 +12°C° 0 mm 2 mps 629 mmHg 84%
    07:00 +13°C° 0 mm 2 mps 630 mmHg 78%
    08:00 +14°C° 0 mm 2 mps 630 mmHg 72%
    09:00 +15°C° 0 mm 2 mps 631 mmHg 65%
    10:00 +17°C° 0 mm 2 mps 632 mmHg 57%
    11:00 +19°C° 0 mm 2 mps 632 mmHg 49%
    12:00 +23°C° 0 mm 2 mps 633 mmHg 40%
    13:00 +23°C° 0 mm 2 mps 633 mmHg 38%
    14:00 +24°C° 0 mm 2 mps 632 mmHg 36%
    15:00 +25°C° 0 mm 1 mps 632 mmHg 34%
    16:00 +24°C° 0 mm 2 mps 631 mmHg 41%
    17:00 +21°C° 0 mm 2 mps 631 mmHg 47%
    18:00 +19°C° 0 mm 2 mps 630 mmHg 54%
    19:00 +17°C° 0 mm 2 mps 630 mmHg 62%
    20:00 +15°C° 0 mm 2 mps 630 mmHg 70%
    21:00 +14°C° 0 mm 2 mps 630 mmHg 78%
    22:00 +13°C° 0 mm 2 mps 630 mmHg 79%
    23:00 +13°C° 0 mm 1 mps 630 mmHg 80%

    25 January, Friday

    Time Temperature Precipitation Wind Pressure Humidity
    00:00 +12°C° 0 mm 1 mps 629 mmHg 81%
    01:00 +12°C° 0 mm 1 mps 629 mmHg 80%
    02:00 +12°C° 0 mm 1 mps 629 mmHg 80%
    03:00 +12°C° 0 mm 1 mps 628 mmHg 80%
    04:00 +12°C° 0 mm 1 mps 628 mmHg 80%
    05:00 +12°C° 0 mm 1 mps 629 mmHg 79%
    06:00 +10°C° 0 mm 2 mps 629 mmHg 79%
    07:00 +13°C° 0 mm 2 mps 630 mmHg 72%
    08:00 +15°C° 0 mm 2 mps 631 mmHg 64%
    09:00 +17°C° 0 mm 2 mps 633 mmHg 57%
    10:00 +18°C° 0 mm 2 mps 633 mmHg 52%
    11:00 +20°C° 0 mm 3 mps 634 mmHg 46%
    12:00 +22°C° 0 mm 3 mps 634 mmHg 41%
    13:00 +22°C° 0 mm 3 mps 634 mmHg 42%
    14:00 +22°C° 0 mm 4 mps 633 mmHg 43%
    15:00 +22°C° 0 mm 4 mps 632 mmHg 44%
    16:00 +20°C° 0 mm 4 mps 632 mmHg 51%
    17:00 +18°C° 0 mm 4 mps 632 mmHg 57%
    18:00 +17°C° 0 mm 3 mps 631 mmHg 63%
    19:00 +14°C° 0 mm 3 mps 631 mmHg 70%
    20:00 +13°C° 0 mm 3 mps 631 mmHg 76%
    21:00 +12°C° 0 mm 2 mps 631 mmHg 83%
    22:00 +12°C° 0 mm 2 mps 631 mmHg 83%
    23:00 +12°C° 0 mm 2 mps 631 mmHg 83%
    Show more